www.pogodaiklimat.ru

Погода и климат >> Архив погоды >> Россия >> Крым >> Евпатория


ПОГОДА в Евпатории

АРХИВ ПОГОДЫ в Евпатории

Время (UTC), дата Ветер
(напр.,м/с)
 
Видим.   Явления Облачность Т
(С)
Тd
(С)
f
(%)
Тe
(С)
Тes
(С)
Комфортность P
(гПа)
Po
(гПа)
Тmin
(С)
Tmax
(С)
R
(мм)
R24
(мм)
S
(см)
18 18.05 СЗ 3 20 км 1 балл +15.0 +5.8 54 +14 +14 по сезону 1018.5 1017.3 +21.0
21 18.05 З 3 10 км ясно +12.8 +4.5 57 +12 +12 по сезону 1018.5 1017.3
00 19.05 СВ 4 10 км ясно +11.4 +8.1 80 +9 +9 по сезону 1017.2 1016.0
03 19.05 СВ 5 20 км ясно +9.8 +6.3 79 +7 +7 холодно 1018.5 1017.3 +9.6
06 19.05 В 6 20 км ясно +13.7 +5.1 56 +12 +15 прохладно 1018.5 1017.3 +9.6
09 19.05 СВ 5
{10}
20 км ясно +16.4 +1.7 37 +16 +25 по сезону 1018.5 1017.3
12 19.05 С 5 50 км ясно +17.6 +0.7 32 +17 +25 по сезону 1017.2 1016.0
15 19.05 С 4
{10}
50 км 2 балла +19.2 +5.6 41 +20 +21 тепло 1015.9 1014.7
18 19.05 С 4 20 км ясно +16.9 +5.5 47 +16 +16 по сезону 1015.9 1014.7 +19.9
21 19.05 999 2 10 км ясно +13.0 +6.8 66 1015.9 1014.7
00 20.05 ЮЗ 2 10 км ясно +12.6 +10.8 89 +12 +12 по сезону 1013.2 1012.0
03 20.05 СЗ 2 20 км в посл. час ливневой дождь 10 баллов +12.4 +10.5 88 +11 +11 прохладно 1013.2 1012.0 +12.1 1
06 20.05 Ю 4 20 км в посл. час ливневой дождь 9 баллов +13.5 +11.0 85 +12 +12 прохладно 1011.9 1010.7 +12.1 2
09 20.05 З 6
{11}
слабый дождь н/о +16.9 +9.3 61 -4 -8 очень
холодно
1011.0 1009.3
12 20.05 ЮЗ 3
{11}
20 км 7 баллов +18.8 +7.9 49 +19 +23 по сезону 1010.5 1009.3
15 20.05 З 4
{11}
20 км 9 баллов +15.2 +9.1 67 +14 +14 прохладно 1010.5 1009.3 0.6
18 20.05 Ю 2
{11}
10 км слабый ливневой дождь 10 баллов +11.8 +10.4 91 +11 +11 прохладно 1010.5 1009.3 +19.5 0.6
21 20.05 ЮЗ 3 10 км 9 баллов +12.7 +10.8 88 +11 +11 прохладно 1009.2 1008.0
00 21.05 штиль 0 10 км 10 баллов +12.6 +10.7 88 +12 +12 по сезону 1007.9 1006.7
03 21.05 ЮВ 5 4000 м ливневой дождь 10 баллов +11.6 +9.2 85 +9 +9 холодно 1007.9 1006.7 +11.6 3
06 21.05 СВ 4 4000 м ливневой дождь 10 баллов +11.9 +9.6 86 +10 +10 холодно 1007.9 1006.7 +11.5 14
09 21.05 ЮВ 6 20 км 9 баллов +13.4 +10.9 85 +11 +12 холодно 1007.9 1006.7
12 21.05 Ю 2 20 км 10 баллов +14.8 +9.8 72 +15 +15 прохладно 1007.9 1006.7
15 21.05 Ю 2 20 км 10 баллов +14.3 +9.1 71 +14 +14 прохладно 1009.2 1008.0 19
18 21.05 С 3 20 км 10 баллов +14.0 +10.4 79 +13 +13 прохладно 1009.2 1008.0 +16.0 8
21 21.05 ЮВ 6 10 км в посл. час ливневой дождь 10 баллов +13.4 +10.9 85 +11 +11 прохладно 1009.2 1008.0
00 22.05 ЮЗ 2 10 км 10 баллов +13.4 +11.6 89 +13 +13 по сезону 1009.2 1008.0
03 22.05 СЗ 1 20 км 10 баллов +12.4 +11.0 91 +12 +12 по сезону 1009.2 1008.0 +12.3 0.3
06 22.05 Ю 2 20 км слабый ливневой дождь 10 баллов +13.6 +11.3 86 +13 +13 прохладно 1009.2 1008.0 +11.9 0.3
09 22.05 Ю 2 50 км 7 баллов +17.0 +11.0 68 +17 +23 по сезону 1010.5 1009.3
12 22.05 З 4 20 км 10 баллов +15.4 +11.4 77 +14 +14 прохладно 1010.5 1009.3
15 22.05 ЮЗ 3 20 км в посл. час ливневой дождь 10 баллов +14.2 +12.4 89 +13 +13 прохладно 1010.5 1009.3 0.0
18 22.05 З 2
{18}
20 км слабый ливневой дождь, в посл. час гроза 10 баллов +11.8 +10.5 92 +11 +11 прохладно 1013.2 1012.0 +18.4 4
21 22.05 З 1 10 км ясно +11.2 +10.7 97 +11 +11 прохладно 1013.2 1012.0
00 23.05 З 1 10 км 9 баллов +11.0 +10.5 97 +11 +11 по сезону 1013.2 1012.0
03 23.05 С 2 20 км 7 баллов +11.8 +11.0 95 +11 +11 прохладно 1014.5 1013.3 +10.2 4
06 23.05 С 3 10 км 2 балла +15.6 +12.0 79 +15 +21 по сезону 1015.9 1014.7 +10.2
09 23.05 С 4 20 км 7 баллов +17.2 +9.6 61 +17 +21 по сезону 1015.9 1014.7
12 23.05 С 5
{11}
20 км 9 баллов +18.1 +9.2 56 +18 +19 по сезону 1017.2 1016.0
15 23.05 СВ 6
{11}
20 км 7 баллов +17.2 +8.3 56 +16 +17 по сезону 1017.2 1016.0
18 23.05 В 4
{10}
20 км 2 балла +16.1 +11.0 72 +15 +15 по сезону 1018.5 1017.3 +19.8
21 23.05 С 2 10 км ясно +12.7 +10.2 85 +12 +12 по сезону 1019.9 1018.7
00 24.05 СЗ 4 10 км ясно +12.4 +9.8 84 +10 +10 прохладно 1019.9 1018.7
03 24.05 В 4 20 км 1 балл +13.0 +8.7 75 +11 +11 прохладно 1019.9 1018.7 +11.5
06 24.05 В 3 20 км ясно +16.0 +9.2 64 +16 +23 по сезону 1019.9 1018.7 +11.5
09 24.05 В 3 20 км 2 балла +19.0 +10.8 59 +20 +32 тепло 1019.9 1018.7
12 24.05 ЮВ 1 20 км 6 баллов +21.4 +10.2 49 +23 +30 комфорт 1019.9 1018.7
15 24.05 ЮВ 4 10 км слабый ливневой дождь 9 баллов +16.2 +14.4 89 +15 +16 прохладно 1019.9 1018.7 0.6
18 24.05 З 1 20 км 4 балла +14.5 +13.0 91 +15 +15 по сезону 1019.9 1018.7 +22.3 2
21 24.05 штиль 0 10 км ясно +12.6 +12.0 96 +12 +12 по сезону 1019.9 1018.7
00 25.05 штиль 0 10 км ясно +12.0 +11.4 96 +11 +11 по сезону 1019.9 1018.7
03 25.05 СВ 1 200 м туман н/о +10.8 +10.3 97 +10 1018.5 1017.3 +10.8 2
09 25.05 ЮЗ 5 20 км 2 балла +18.9 +12.9 68 +20 +27 тепло 1019.9 1018.7
12 25.05 З 5 50 км 2 балла +20.7 +9.0 47 +22 +28 комфорт 1018.5 1017.3

 

Местоположение метеостанции Евпатория (Крым, Россия): широта 45.18 долгота 33.37 высота над уровнем моря 10 м.

В архиве по умолчанию представлена погода в Евпатории за последнюю неделю. Архивные данные за месяц целиком и за предыдущие месяцы, начиная с января 2011 года, Вы можете получить, выбрав интересующий диапазон дат из раскрывающегося списка и нажав кнопку "Ввод!".

Внимание! Время в таблицах - всемирное. Для получения местного времени необходимо прибавить поправку, которая в Евпатории равна 3 ч.

Смотрите также архив погоды в соседних городах и на ближайших метеорологических станциях:

Погода в Симферополе (Крым, Россия) (50 км)
Погода в Севастополе (город Севастополь, Россия) (64 км)
Погода в Черноморском (Крым, Россия) (65 км)
Погода в Херсонесском Маяке (город Севастополь, Россия) (67 км)
Погода в Клепинино (Крым, Россия) (74 км)
Погода в Ай-Петри (Крым, Россия) (97 км)
Погода в Хорлах (Херсонская область, Украина) (97 км)
Погода в Белогорске (Крым, Россия) (98 км)
Погода в Алуште (Крым, Россия) (99 км)
Погода в Ялте (Крым, Россия) (100 км)

Пояснения к столбцам:

Ветер - указаны скорость ветра в м/с - средняя за 10 мин, порывы в срок и между сроками (в фигурных скобках) и направление, откуда дует ветер: С - северный, СВ - северо-восточный, В - восточный, ЮВ - юго-восточный, Ю - южный, ЮЗ - юго-западный, З - западный, СЗ - северо-западный.
Видимость - горизонтальная дальность видимости в метрах или километрах. При видимости от 1 до 10 км при отсутствии осадков обычно наблюдается дымка, при ухудшении видимости до 1 км и менее - туман. В сухую погоду видимость может ухудшаться дымом, пылью или мглою.
Явления - указаны атмосферные явления, наблюдавшиеся в срок или в последний час перед сроком; фигурными скобками обозначены явления, наблюдавшиеся между сроками (за 1-3 часа до срока); квадратными скобками обозначены град или гололедные отложения с указанием их диаметра в мм.
Облачность - указаны через наклонную черту общая и нижняя облачность в баллах и высота нижней границы облаков в метрах; квадратными скобками обозначены формы облаков: Ci - перистые, Cs - перисто-слоистые, Cc - перисто-кучевые, Ac - высококучевые, As - высокослоистые, Sc - слоисто-кучевые, Ns - слоисто-дождевые, Cu - кучевые, Cb - кучево-дождевые. Подробнее классификацию облаков см. в Атласе облаков (PDF).
T - Температура воздуха - температура, измеренная на высоте 2 м над землей.
Td - Температура точки росы - температура, при понижении до которой содержащийся в воздухе водяной пар достигнет насыщения.
f - Относительная влажность воздуха - влажноcть воздуха, измеренная на высоте 2 м над землей.
Te - Эффективная температура - температура, которую ощущает одетый по сезону человек в тени. Характеристика душности погоды. При расчете учитывается влияние влажности воздуха и скорости ветра на теплоощущения человека.
Tes - Эффективная температура на солнце - температура, которую ощущает человек, с поправкой на солнечный нагрев. Характеристика знойности погоды. Зависит от высоты солнца над горизонтом, облачности и скорости ветра. Ночью, в пасмурную погоду, а также при ветре 12 м/с и более поправка равна нулю.
P - Атмосферное давление - приведенное к уровню моря атмосферное давление.
Po - Атмосферное давление - измеренное на уровне метеостанции атмосферное давление.
Tmin - Минимальная температура - минимум температуры воздуха на высоте 2 м над землей.
Tmax - Максимальная температура - максимум температуры воздуха на высоте 2 м над землей.
R - Количество осадков - Количество выпавших осадков за период времени, мм. При наведении курсора мыши на число - период времени, за который выпало указанное количество осадков.
R24 - Количество осадков - Количество выпавших осадков за 24 часа, мм.
S - Снежный покров - Высота снежного покрова, см. При наведении курсора мыши на число - состояние снежного покрова и степень покрытия местности в баллах.